Regional Weather Roundup
Issued by NWS

Home | Current Version | Previous Version | Text Only | Print | Product List | Glossary Off
Versions: 1 2 3 4 5 6 7 8 9 10 11 12 13 14 15 16 17 18 19 20 21 22 23 24 25 26 27 28 29 30 31 32 33 34 35 36 37 38 39 40 41 42 43 44 45 46 47 48 49 50

000
ASUS43 KMKX 210421
RWRWI

WISCONSIN REGIONAL WEATHER ROUNDUP
NATIONAL WEATHER SERVICE MILWAUKEE/SULLIVAN WI
1100 PM CDT WED AUG 20 2014

NOTE: "FAIR" INDICATES FEW OR NO CLOUDS BELOW 12,000 FEET WITH NO
SIGNIFICANT WEATHER AND/OR OBSTRUCTIONS TO VISIBILITY.

WIZ001-002-006>008-014>016-023>028-210500-
NORTHWEST WISCONSIN

CITY           SKY/WX    TMP DP  RH WIND       PRES   REMARKS
SUPERIOR ARPT  MOCLDY    62  61  97 NE6       29.94S
ASHLAND        CLOUDY    60  58  92 CALM      29.96R
HAYWARD        PTCLDY    58  58 100 CALM      29.96R FOG
SIREN          PTCLDY    65  62  89 E5        29.93S
RICE LAKE      MOCLDY    64  61  90 E3        29.95S
LADYSMITH      MOCLDY    63  61  93 E3        29.97S
EAU CLAIRE     PTCLDY    66  64  93 E6        29.91S
MENOMONIE      MOCLDY    68  64  87 E3        29.91F
NEW RICHMOND   PTCLDY    68  63  84 E6        29.91S
OSCEOLA        MOCLDY    69  64  85 E6        29.93S
$$

WIZ003>005-009-010-017-018-210500-
NORTH CENTRAL WISCONSIN

CITY           SKY/WX    TMP DP  RH WIND       PRES   REMARKS
WOODRUFF       CLOUDY    63  59  86 CALM      29.98S
RHINELANDER    CLOUDY    60  59  96 CALM      29.99R
EAGLE RIVER    CLOUDY    63  61  94 E3        29.97S
LAND O LAKES   CLOUDY    62  60  94 CALM      29.99S
PHILLIPS       PTCLDY    58  58 100 CALM      29.97R
TOMAHAWK       FOG       54  53  96 CALM      29.98S VSB 1/2
MEDFORD        PTCLDY    59  59 100 E5        29.96S
MERRILL        MOCLDY    56  56 100 CALM      29.97S
$$

WIZ029-030-035-036-043>047-210500-
CENTRAL WISCONSIN

CITY           SKY/WX    TMP DP  RH WIND       PRES   REMARKS
WAUSAU         CLEAR     62  61  96 CALM      29.95S
MOSINEE        CLEAR     61  61 100 NE5       29.97S
MARSHFIELD     MOCLDY    64  61  90 E5        29.95S
STEVENS POINT  PTCLDY    59  58  96 CALM      29.96S
WAUPACA        PTCLDY    65  63  93 CALM      29.95S
WAUTOMA        PTCLDY    66  64  93 CALM      29.95S
WISC RAPIDS    PTCLDY    66  62  87 E3        29.96S
CAMP DOUGLAS   MOCLDY    64  63  94 E1        29.94R
$$

WIZ011>013-019>022-031-037>040-048>050-210500-
NORTHEAST WISCONSIN

CITY           SKY/WX    TMP DP  RH WIND       PRES   REMARKS
ANTIGO         CLOUDY    59  59  97 CALM      29.98S
STURGEON BAY   CLOUDY    64  61  88 CALM      29.96S
GREEN BAY      CLEAR     62  61  96 S3        29.95R
MANITOWOC      FOG       64  63  96 CALM      29.96S VSB 3/4
APPLETON       MOCLDY    66  61  82 CALM      29.95R
CLINTONVILLE   CLEAR     61  59  94 CALM      29.95R
OSHKOSH        PTCLDY    64  63  96 S5        29.95R
$$

WIZ032>034-041-042-053>061-210500-
SOUTHWEST WISCONSIN

CITY           SKY/WX    TMP DP  RH WIND       PRES   REMARKS
LA CROSSE      PTCLDY    75  67  76 E9        29.89S
SPARTA         MOCLDY    69  64  83 E6        29.93S
VIROQUA        FAIR      69  69 100 NE6       29.94R
BOSCOBEL       MOCLDY    69  66  90 CALM      29.92R
PRAIRIE DU CHI PTCLDY    69  65  89 E5        29.90F
PLATTEVILLE    FAIR      68  66  91 SE5       29.94R
$$

WIZ056-057-062-063-064-067-068-210500-
SOUTH CENTRAL WISCONSIN

CITY           SKY/WX    TMP DP  RH WIND       PRES   REMARKS
BARABOO/DELLS  MOCLDY    69  64  83 E7        29.94R
LONE ROCK      PTCLDY    74  67  78 CALM      29.93R
WATERTOWN      PTCLDY    66  65  94 E6        29.94R
MADISON        PTCLDY    72  67  84 CALM      29.93R
MIDDLETON      FAIR      74  68  80 CALM      29.94R
MONROE         MOCLDY    70  66  88 S5        29.95R
JANESVILLE     PTCLDY    72  68  88 CALM      29.94S
$$

WIZ051-052-058>065-066-070>072-210500-
SOUTHEAST WISCONSIN

CITY           SKY/WX    TMP DP  RH WIND       PRES   REMARKS
MILWAUKEE      MOCLDY    68  64  87 E5        29.95R
WAUKESHA       CLOUDY    64  63  94 E3        29.97R
MILWAUKEE/TIMM MOCLDY    68  61  77 E5        29.96R
RACINE         CLOUDY    70  65  84 E9        29.97R
BURLINGTON     PTCLDY    67  65  94 CALM      29.96R
KENOSHA        PTCLDY    71  65  81 E9        29.95R
FOND DU LAC    MOCLDY    67  63  87 E3        29.96R
SHEBOYGAN      PTCLDY    63  61  93 CALM      29.96R FOG
WEST BEND      MOCLDY    63  59  88 CALM      29.96R
JUNEAU         PTCLDY    66  39  37 E5        29.96R
$$

LSZ147-162-210500-
LAKE SUPERIOR

STATION/POSITION TIME  TEMP    WIND        PRES    WAVE
                       AIR SEA DIR/SP/G            HT/PER
                 (UTC) (F)     (DEG/KT/KT) (MB)    (FT/S)
W MID LAKE BUOY  0350   59 59   50/  2/  2 1014.6S   0
DEVILS ISLAND    0400   61      90/ 10/ 10 1014.1F
PORT WING        0300   65     170/  1/  2 1013.9
SAXON HARBOR     0300   63        CALM     1013.9F
$$

LMZ867-665-643>646-210500-
LAKE MICHIGAN

STATION/POSITION TIME  TEMP    WIND        PRES    WAVE
                       AIR SEA DIR/SP/G            HT/PER
                 (UTC) (F)     (DEG/KT/KT) (MB)    (FT/S)
N MID LAKE BUOY  0350   62 62   40/  4/  4 1013.5R   0
NORTHPORT PIER   0300   63     200/  3/  6 1013.9R
SISTER BAY       0326   64        CALM       N/A
KEWAUNEE LAKESHO 0300   64      CALM  /  1 1013.1R
SHEBOYGAN LAKESH 0400   67 64  100/  2/  3 1014.5R
ATWATER BUOY     0400   69      80/  8/ 10 1015.2R
MILWAUKEE LAKESH 0400   69      70/  3/  4   N/A
S MID LAKE BUOY  0350   68 68   90/  6/  6 1014.0R   0
KENOSHA   LAKESH 0400   71      90/  2/  4 1013.9R
$$

TC  - TEMPERATURE IN CELSIUS
VSB - VISIBILITY IN STATUTE MILES
WCI - WIND CHILL INDEX
HX  - HEAT INDEX



USA.gov is the U.S. government's official web portal to all federal, state and local government web resources and services.